Content
SEND FEEDBACK

Daily
Averages
Monthly
Summary
United States of America

BOILING SPRING LAKES, NORTH CAROLINA


Home > North America > United States > North Carolina
Elevation: 20 feet     Latitude: 34 00N     Longitude: 078 01W

WEATHER
 
SELECT A DAY
Number of Records: 136,238;   Date Range: 8/21/01 - 7/23/14
 
SHARE

PRINT THIS DATA

[ ← Previous Day ]
WEATHER ALMANAC - JANUARY 19, 2013
[ Next Day → ]
[ °C ]   °F
Weather ElementAverageHighLow
Temperature42.4 °F54.7 °F (1:55 pm)32.2 °F (3:55 am)
Dewpoint33.9 °F42.4 °F (7:35 pm)25.9 °F (9:35 am)
Humidity74.1 %96 % (11:15 pm)42 % (11:15 am)
Barometer30.36 in30.50 in (12:35 am)30.22 in (11:55 pm)
Wind Speed3.7 mph9.2 mph (1:55 am)
Weather ElementAverage
Visibility10 mi
Wind DirectionENE (82.5 °)

Weather ElementTotal
Precipitation---
Heating Degree Days21.6 (Base 65)
Averaged from 63 records on January 19, 2013
WEATHER CONDITIONS BREAKOUT
WIND DIRECTION BREAKOUT
WEATHER BY HOUR - JANUARY 19, 2013
[ °C ]   °F
Local TimeTemperatureDewpointHumidityBarometerVisibilityWind DirectionWind SpeedGust SpeedPrecipitationEventsConditions
12:35 AM35.2 °F28.9 °F78 %30.50 in10.0 miNorth (360°)4.6 mphClear
12:55 AM34.7 °F28.9 °F79 %30.50 in10.0 miNorth (360°)4.6 mphScattered Clouds
1:15 AM34.3 °F28.6 °F79 %30.49 in10.0 miNorth (10°)5.8 mphMostly Cloudy
1:35 AM34.2 °F28.8 °F81 %30.50 in10.0 miNorth (10°)6.9 mphScattered Clouds
1:55 AM34.7 °F28.4 °F78 %30.48 in10.0 miNorth (360°)9.2 mphClear
2:15 AM34.0 °F28.0 °F79 %30.47 in10.0 miNorth (360°)8.1 mphClear
2:35 AM33.3 °F27.5 °F79 %30.47 in10.0 miNorth (10°)6.9 mphClear
2:55 AM32.5 °F27.5 °F82 %30.47 in10.0 miNorth (10°)5.8 mphClear
3:15 AM32.4 °F27.5 °F82 %30.47 in10.0 miNNE (20°)4.6 mphClear
3:35 AM32.4 °F27.1 °F81 %30.47 in10.0 miNNE (20°)5.8 mphClear
3:55 AM32.2 °F27.1 °F82 %30.47 in10.0 miNorth (10°)4.6 mphClear
4:15 AM32.4 °F27.9 °F83 %30.46 in10.0 miNorth (360°)6.9 mphClear
4:35 AM32.5 °F28.2 °F84 %30.46 in10.0 miNorth (10°)5.8 mphClear
4:55 AM32.7 °F28.4 °F84 %30.46 in10.0 miNNE (30°)5.8 mphClear
5:15 AM32.9 °F28.2 °F83 %30.45 in10.0 miNorth (360°)8.1 mphClear
5:35 AM32.9 °F27.5 °F81 %30.45 in10.0 miNorth (10°)6.9 mphClear
5:55 AM33.1 °F27.0 °F78 %30.45 in10.0 miNorth (360°)6.9 mphClear
6:15 AM32.5 °F26.6 °F79 %30.46 in10.0 miNNE (30°)4.6 mphScattered Clouds
6:35 AM33.1 °F27.0 °F78 %30.47 in10.0 miNE (40°)4.6 mphOvercast
6:55 AM34.0 °F26.4 °F74 %30.47 in10.0 miNNE (30°)5.8 mphOvercast
7:55 AM35.1 °F26.8 °F72 %30.47 in10.0 miNorth (10°)5.8 mphClear
8:15 AM36.1 °F26.4 °F68 %30.47 in10.0 miNorth (10°)5.8 mphClear
8:55 AM39.2 °F26.6 °F61 %30.48 in10.0 miNNE (30°)6.9 mphMostly Cloudy
9:35 AM41.2 °F25.9 °F55 %30.48 in10.0 miNNE (20°)8.1 mphScattered Clouds
10:55 AM46.9 °F26.4 °F45 %30.47 in10.0 miNE (50°)5.8 mphScattered Clouds
11:15 AM49.5 °F27.1 °F42 %30.45 in10.0 miENE (70°)4.6 mphClear
11:35 AM49.6 °F27.3 °F42 %30.44 in10.0 miNE (50°)3.5 mphClear
12:15 PM51.6 °F31.5 °F46 %30.40 in10.0 miNNW (340°)3.5 mphClear
12:35 PM53.2 °F32.2 °F45 %30.38 in10.0 miNorth (350°)4.6 mphClear
12:55 PM54.0 °F34.3 °F47 %30.37 in10.0 miNNE (30°)3.5 mphClear
1:15 PM54.1 °F33.8 °F46 %30.36 in10.0 miNNE (20°)4.6 mphClear
1:35 PM54.5 °F34.9 °F48 %30.34 in10.0 miCalmClear
1:55 PM54.7 °F37.0 °F51 %30.33 in10.0 miSSE (160°)5.8 mphClear
2:15 PM54.5 °F37.0 °F52 %30.32 in10.0 miSE (140°)6.9 mphClear
2:35 PM52.7 °F36.0 °F53 %30.32 in10.0 miSE (130°)4.6 mphClear
2:55 PM53.6 °F36.5 °F52 %30.31 in10.0 miSE (130°)4.6 mphScattered Clouds
3:15 PM53.4 °F37.6 °F55 %30.30 in10.0 miSE (140°)4.6 mphClear
3:35 PM53.8 °F37.9 °F55 %30.30 in10.0 miESE (120°)4.6 mphClear
3:55 PM53.2 °F39.4 °F59 %30.30 in10.0 miESE (120°)3.5 mphClear
4:15 PM51.4 °F39.2 °F63 %30.29 in10.0 miSSE (150°)4.6 mphClear
4:35 PM50.4 °F39.4 °F66 %30.29 in10.0 miESE (120°)4.6 mphClear
4:55 PM50.0 °F40.5 °F70 %30.28 in10.0 miESE (110°)4.6 mphClear
5:15 PM48.7 °F40.8 °F74 %30.28 in10.0 miCalmClear
5:35 PM48.0 °F40.6 °F76 %30.27 in10.0 miCalmClear
5:55 PM46.8 °F41.0 °F80 %30.26 in10.0 miCalmClear
6:15 PM46.4 °F41.0 °F81 %30.26 in10.0 miCalmClear
6:35 PM45.7 °F41.2 °F84 %30.27 in10.0 miSE (140°)3.5 mphClear
6:55 PM46.0 °F41.9 °F85 %30.27 in10.0 miCalmClear
7:15 PM45.7 °F42.1 °F87 %30.26 in10.0 miCalmClear
7:35 PM45.5 °F42.4 °F89 %30.27 in10.0 miCalmClear
7:55 PM43.3 °F41.2 °F92 %30.27 in10.0 miCalmClear
8:15 PM42.8 °F40.5 °F91 %30.27 in10.0 miCalmClear
8:35 PM41.9 °F40.1 °F93 %30.27 in10.0 miCalmClear
8:55 PM42.1 °F40.3 °F93 %30.26 in10.0 miCalmClear
9:15 PM41.9 °F40.1 °F93 %30.26 in10.0 miCalmClear
9:35 PM41.9 °F39.4 °F91 %30.25 in10.0 miCalmClear
9:55 PM41.0 °F39.6 °F95 %30.25 in10.0 miCalmClear
10:15 PM40.5 °F38.8 °F94 %30.24 in10.0 miCalmClear
10:35 PM41.0 °F39.0 °F93 %30.24 in10.0 miCalmClear
10:55 PM39.7 °F38.3 °F95 %30.23 in10.0 miCalmClear
11:15 PM39.4 °F38.3 °F96 %30.24 in10.0 miCalmClear
11:35 PM42.4 °F41.2 °F95 %30.23 in10.0 miCalmClear
11:55 PM42.1 °F40.6 °F95 %30.22 in10.0 miCalmClear
Hourly data recorded from KSUT, located miles away from Boiling Spring Lakes, North Carolina







STORIES FROM OUR PARTNERS